Location: Street
(51.1247°N, 2.7429°W)
Time: 06:19:47
(UTC+00:00)

SR - Pass Details

Date: 05 December 2020
Orbit: 575 x 880 km, 66.7° (Epoch: 25 January)

Event Time Altitude Azimuth Distance (km) Brightness Sun altitude
Rises 17:58:07 0° 230° (SW) 2,842 ? -16.8°
Reaches altitude 10° 18:00:19 10° 235° (SW) 1,973 ? -17.1°
Maximum altitude 18:04:41 55° 314° (NW) 778 ? -17.7°
Enters shadow 18:07:41 21° 26° (NNE) 1,496 ? -18.2°
Drops below altitude 10° 18:09:27 10° 33° (NNE) 2,151 - -18.5°
Sets 18:11:57 0° 37° (NE) 3,125 - -18.9°
